カタログに戻る

STARLINK-5402

運用中通信VLEO
NORAD 54869·PAYLOAD·🇺🇸 United States

打ち上げ Dec 28, 2022 から Cape Canaveral Space Force Station

Loading…

次のパス (今後24時間)

TLE

最新Source: CelesTrak SupGP

元期: Sep 15, 2026, 02:53 UTC

1 54869C 22177BB  26258.12062500  .00056264  00000+0  20375-2 0  2589
2 54869  43.0017 132.2179 0001356 268.7114 191.9497 15.27555884    19

AllMySatでSTARLINK-5402をリアルタイム追跡

Download on the App Store